This demonstration page uses our WeatherBlox Daily Observations layout. Learn more.

38.89511, -77.03637

Hourly Observations for September 4, 2015

Temp ( °F °C ) Dew Point ( °F °C ) Humidity (%) Winds ( mph kmh ) Pressure ( in mb ) Visibility ( mi km ) Precip ( " mm )
12:52 am 00:52 Mostly Cloudy 80 26.7 70 21.1 71 71 Calm 29.91 1013 10 16.0934 0 0
1:52 am 01:52 Mostly Cloudy 79 26.1 69 20.6 72 72 N 6 9 29.9 1013 10 16.0934 0 0
2:52 am 02:52 Mostly Clear 78 25.6 69 20.6 74 74 NW 6 9 29.91 1013 10 16.0934 0 0
3:52 am 03:52 Clear 77 25 69 20.6 77 77 NNW 6 9 29.91 1013 10 16.0934 0 0
4:52 am 04:52 Clear 76 24.4 69 20.6 79 79 N 3 6 29.92 1013 10 16.0934 0 0
5:52 am 05:52 Partly Cloudy 75 23.9 69 20.6 82 82 NNW 7 11 29.93 1014 10 16.0934 0 0
6:52 am 06:52 Partly Cloudy 75 23.9 70 21.1 84 84 NNW 8 13 29.96 1014 9 14.48406 0 0
7:52 am 07:52 Mostly Cloudy 79 26.1 70 21.1 74 74 N 5 7 29.98 1015 9 14.48406 0 0
8:52 am 08:52 Mostly Cloudy 81 27.2 69 20.6 67 67 N 8 13 30 1016 10 16.0934 0 0
9:52 am 09:52 Mostly Cloudy 84 28.9 69 20.6 61 61 ENE 7 11 30.01 1016 10 16.0934 0 0
10:52 am 10:52 Mostly Cloudy 86 30 70 21.1 59 59 ENE 5 7 30.02 1017 9 14.48406 0 0
11:52 am 11:52 Mostly Cloudy 89 31.7 70 21.1 53 53 NE 6 9 30.02 1017 9 14.48406 0 0
12:52 pm 12:52 Partly Cloudy 91 32.8 70 21.1 50 50 ESE 7 11 30.02 1017 10 16.0934 0 0
1:52 pm 13:52 Mostly Cloudy 91 32.8 67 19.4 45 45 E 12 19 30.01 1016 9 14.48406 0 0
2:10 pm 14:10 Mostly Cloudy 91 33 64 18 41 41 ESE 8 13 30 1016 9 14.48406 0 0
2:52 pm 14:52 Mostly Cloudy 89 31.7 68 20 50 50 SE 10 17 30.01 1016 9 14.48406 0 0
3:52 pm 15:52 Mostly Cloudy 88 31.1 69 20.6 54 54 SE 8 13 30.01 1016 9 14.48406 0 0
4:52 pm 16:52 Mostly Cloudy 87 30.6 70 21.1 57 57 SE 6 9 30.01 1016 9 14.48406 0 0
5:52 pm 17:52 Cloudy 86 30 71 21.7 61 61 SE 8 13 30.03 1017 9 14.48406 0 0
6:52 pm 18:52 Cloudy 85 29.4 71 21.7 63 63 SE 6 9 30.04 1017 9 14.48406 0 0
7:52 pm 19:52 Mostly Cloudy 84 28.9 70 21.1 63 63 E 9 15 30.06 1018 10 16.0934 0 0
8:52 pm 20:52 Mostly Cloudy 82 27.8 69 20.6 65 65 ESE 12 19 30.09 1019 10 16.0934 0 0
9:52 pm 21:52 Partly Cloudy 80 26.7 70 21.1 71 71 E 9 15 30.11 1020 10 16.0934 0 0
10:52 pm 22:52 Partly Cloudy 79 26.1 71 21.7 77 77 E 8 13 30.14 1021 10 16.0934 0 0
11:52 pm 23:52 Mostly Cloudy 77 25 71 21.7 82 82 E 10 17 30.14 1021 10 16.0934 0 0

Powered by AerisWeather